,,�O�C���x[��],����1,�O�C���x[��],����2,���ԉ��x [��],����3,���Ԏ��x [��],����4,�Q�����x [��],����5,���� [��],����6,�R�����i��󒲎��j���x�m���n,����7
2003/4/1,0:00,6,0,73.7,0,,1,,1,,1,,1,,1
2003/4/1,0:15,6.1,0,72.4,0,,1,,1,,1,,1,,1
2003/4/1,0:30,6.1,0,70,0,,1,,1,,1,,1,,1
2003/4/1,0:45,6.2,0,68.5,0,,1,,1,,1,,1,,1
2003/4/1,1:00,6.3,0,70,0,,1,,1,,1,,1,,1
2003/4/1,1:15,6.2,0,74.1,0,,1,,1,,1,,1,,1
2003/4/1,1:30,6.2,0,76.9,0,,1,,1,,1,,1,,1
2003/4/1,1:45,6.3,0,76.6,0,,1,,1,,1,,1,,1
2003/4/1,2:00,6.5,0,71.7,0,,1,,1,,1,,1,,1
2003/4/1,2:15,6.7,0,70.8,0,,1,,1,,1,,1,,1
2003/4/1,2:30,6.6,0,74.6,0,,1,,1,,1,,1,,1
2003/4/1,2:45,6.4,0,73.7,0,,1,,1,,1,,1,,1
2003/4/1,3:00,6.2,0,74.6,0,,1,,1,,1,,1,,1
2003/4/1,3:15,6,0,75.6,0,,1,,1,,1,,1,,1
2003/4/1,3:30,5.4,0,77.2,0,,1,,1,,1,,1,,1
2003/4/1,3:45,4.9,0,79.4,0,,1,,1,,1,,1,,1
2003/4/1,4:00,4.7,0,81.7,0,,1,,1,,1,,1,,1
2003/4/1,4:15,4.9,0,81.4,0,,1,,1,,1,,1,,1
2003/4/1,4:30,4.7,0,82.8,0,,1,,1,,1,,1,,1
2003/4/1,4:45,4.9,0,83.5,0,,1,,1,,1,,1,,1
2003/4/1,5:00,5.2,0,83.2,0,,1,,1,,1,,1,,1
2003/4/1,5:15,5,0,85.4,0,,1,,1,,1,,1,,1
2003/4/1,5:30,4.6,0,85.9,0,,1,,1,,1,,1,,1
2003/4/1,5:45,4.2,0,87.2,0,,1,,1,,1,,1,,1
2003/4/1,6:00,3.9,0,88.6,0,,1,,1,,1,,1,,1
2003/4/1,6:15,3.6,0,88.8,0,,1,,1,,1,,1,,1
2003/4/1,6:30,3.5,0,88.8,0,,1,,1,,1,,1,,1
2003/4/1,6:45,3.9,0,88.9,0,,1,,1,,1,,1,,1
2003/4/1,7:00,4.4,0,88.9,0,,1,,1,,1,,1,,1
2003/4/1,7:15,5,0,87.9,0,,1,,1,,1,,1,,1
2003/4/1,7:30,5.6,0,82.9,0,,1,,1,,1,,1,,1
2003/4/1,7:45,6.5,0,78.8,0,,1,,1,,1,,1,,1
2003/4/1,8:00,6.8,0,74.8,0,,1,,1,,1,,1,,1
2003/4/1,8:15,7.5,0,70.2,0,,1,,1,,1,,1,,1
2003/4/1,8:30,7.8,0,67.7,0,,1,,1,,1,,1,,1
2003/4/1,8:45,8.6,0,63,0,,1,,1,,1,,1,,1
2003/4/1,9:00,9,0,58.9,0,,1,,1,,1,,1,,1
2003/4/1,9:15,9.3,0,58.1,0,,1,,1,,1,,1,,1
2003/4/1,9:30,9.1,0,57.4,0,,1,,1,,1,,1,,1
2003/4/1,9:45,9.5,0,54.4,0,,1,,1,,1,,1,,1
2003/4/1,10:00,10.3,0,50.2,0,,1,,1,,1,,1,,1
2003/4/1,10:15,10.5,0,50.5,0,,1,,1,,1,,1,,1
2003/4/1,10:30,10,0,51.5,0,,1,,1,,1,,1,,1
2003/4/1,10:45,9.8,0,52.2,0,,1,,1,,1,,1,,1
2003/4/1,11:00,10,0,51.6,0,,1,,1,,1,,1,,1
2003/4/1,11:15,10.2,0,50.6,0,,1,,1,,1,,1,,1
2003/4/1,11:30,10.2,0,49.7,0,,1,,1,,1,,1,,1
2003/4/1,11:45,10.4,0,52.4,0,,1,,1,,1,,1,,1
2003/4/1,12:00,10.5,0,49,0,,1,,1,,1,,1,,1
2003/4/1,12:15,10.8,0,50.9,0,,1,,1,,1,,1,,1
2003/4/1,12:30,11.3,0,50.9,0,,1,,1,,1,,1,,1
2003/4/1,12:45,11.1,0,55.4,0,,1,,1,,1,,1,,1
2003/4/1,13:00,11,0,54.6,0,,1,,1,,1,,1,,1
2003/4/1,13:15,10.9,0,56.5,0,,1,,1,,1,,1,,1
2003/4/1,13:30,11,0,55,0,,1,,1,,1,,1,,1
2003/4/1,13:45,11.2,0,54.8,0,,1,,1,,1,,1,,1
2003/4/1,14:00,10.9,0,53.3,0,,1,,1,,1,,1,,1
2003/4/1,14:15,11.3,0,53.1,0,,1,,1,,1,,1,,1
2003/4/1,14:30,11.4,0,52.4,0,,1,,1,,1,,1,,1
2003/4/1,14:45,11.1,0,53.1,0,,1,,1,,1,,1,,1
2003/4/1,15:00,11.1,0,49.2,0,,1,,1,,1,,1,,1
2003/4/1,15:15,10.9,0,46.2,0,,1,,1,,1,,1,,1
2003/4/1,15:30,10.6,0,44.7,0,,1,,1,,1,,1,,1
2003/4/1,15:45,10.4,0,49.6,0,,1,,1,,1,,1,,1
2003/4/1,16:00,10.2,0,50.1,0,,1,,1,,1,,1,,1
2003/4/1,16:15,10,0,52.4,0,,1,,1,,1,,1,,1
2003/4/1,16:30,9.7,0,55,0,,1,,1,,1,,1,,1
2003/4/1,16:45,9.3,0,55.7,0,,1,,1,,1,,1,,1
2003/4/1,17:00,9.2,0,58.8,0,,1,,1,,1,,1,,1
2003/4/1,17:15,8.9,0,59.2,0,,1,,1,,1,,1,,1
2003/4/1,17:30,8.5,0,62.3,0,,1,,1,,1,,1,,1
2003/4/1,17:45,7.9,0,65.9,0,,1,,1,,1,,1,,1
2003/4/1,18:00,7.6,0,65.8,0,,1,,1,,1,,1,,1
2003/4/1,18:15,7.1,0,69.6,0,,1,,1,,1,,1,,1
2003/4/1,18:30,6.4,0,72.2,0,,1,,1,,1,,1,,1
2003/4/1,18:45,5.9,0,74.2,0,,1,,1,,1,,1,,1
2003/4/1,19:00,5.7,0,75.1,0,,1,,1,,1,,1,,1
2003/4/1,19:15,5.8,0,74.4,0,,1,,1,,1,,1,,1
2003/4/1,19:30,5.1,0,78.5,0,,1,,1,,1,,1,,1
2003/4/1,19:45,4.7,0,79.6,0,,1,,1,,1,,1,,1
2003/4/1,20:00,4.2,0,82.4,0,,1,,1,,1,,1,,1
2003/4/1,20:15,3.6,0,85.2,0,,1,,1,,1,,1,,1
2003/4/1,20:30,3.2,0,86.2,0,,1,,1,,1,,1,,1
2003/4/1,20:45,2.8,0,87,0,,1,,1,,1,,1,,1
2003/4/1,21:00,2.5,0,87.7,0,,1,,1,,1,,1,,1
2003/4/1,21:15,2.2,0,88.7,0,,1,,1,,1,,1,,1
2003/4/1,21:30,1.8,0,88.6,0,,1,,1,,1,,1,,1
2003/4/1,21:45,1,0,89.5,0,,1,,1,,1,,1,,1
2003/4/1,22:00,1.1,0,89.9,0,,1,,1,,1,,1,,1
2003/4/1,22:15,1.3,0,91.3,0,,1,,1,,1,,1,,1
2003/4/1,22:30,0.8,0,91.2,0,,1,,1,,1,,1,,1
2003/4/1,22:45,1,0,91,0,,1,,1,,1,,1,,1
2003/4/1,23:00,0.5,0,91,0,,1,,1,,1,,1,,1
2003/4/1,23:15,0.6,0,90.8,0,,1,,1,,1,,1,,1
2003/4/1,23:30,0.2,0,90.9,0,,1,,1,,1,,1,,1
2003/4/1,23:45,-0.2,0,91.7,0,,1,,1,,1,,1,,1
2003/4/2,0:00,0,0,92.3,0,,1,,1,,1,,1,,1
2003/4/2,0:15,0.2,0,92.1,0,,1,,1,,1,,1,,1
2003/4/2,0:30,0.2,0,92,0,,1,,1,,1,,1,,1
2003/4/2,0:45,0.1,0,92.2,0,,1,,1,,1,,1,,1
2003/4/2,1:00,0.1,0,91.9,0,,1,,1,,1,,1,,1
2003/4/2,1:15,-0.2,0,91.6,0,,1,,1,,1,,1,,1
2003/4/2,1:30,-0.2,0,91.9,0,,1,,1,,1,,1,,1
2003/4/2,1:45,-0.1,0,92,0,,1,,1,,1,,1,,1
2003/4/2,2:00,-0.2,0,92.2,0,,1,,1,,1,,1,,1
2003/4/2,2:15,-0.7,0,91.9,0,,1,,1,,1,,1,,1
2003/4/2,2:30,-0.6,0,92.3,0,,1,,1,,1,,1,,1
2003/4/2,2:45,-0.8,0,91.7,0,,1,,1,,1,,1,,1
2003/4/2,3:00,-1,0,91.5,0,,1,,1,,1,,1,,1
2003/4/2,3:15,-0.9,0,92,0,,1,,1,,1,,1,,1
2003/4/2,3:30,-1.1,0,91.4,0,,1,,1,,1,,1,,1
2003/4/2,3:45,-1,0,90.9,0,,1,,1,,1,,1,,1
2003/4/2,4:00,-1,0,91.3,0,,1,,1,,1,,1,,1
2003/4/2,4:15,-1.1,0,91.4,0,,1,,1,,1,,1,,1
2003/4/2,4:30,-1,0,91.5,0,,1,,1,,1,,1,,1
2003/4/2,4:45,-1.2,0,91.5,0,,1,,1,,1,,1,,1
2003/4/2,5:00,-1.3,0,91.1,0,,1,,1,,1,,1,,1
2003/4/2,5:15,-1.2,0,91.8,0,,1,,1,,1,,1,,1
2003/4/2,5:30,-1.1,0,92,0,,1,,1,,1,,1,,1
2003/4/2,5:45,-1.4,0,91.8,0,,1,,1,,1,,1,,1
2003/4/2,6:00,-1.1,0,91.4,0,,1,,1,,1,,1,,1
2003/4/2,6:15,-1,0,91,0,,1,,1,,1,,1,,1
2003/4/2,6:30,-0.5,0,90.7,0,,1,,1,,1,,1,,1
2003/4/2,6:45,-0.2,0,90.8,0,,1,,1,,1,,1,,1
2003/4/2,7:00,0.2,0,89.9,0,,1,,1,,1,,1,,1
2003/4/2,7:15,0.9,0,90.5,0,,1,,1,,1,,1,,1
2003/4/2,7:30,1.3,0,88.8,0,,1,,1,,1,,1,,1
2003/4/2,7:45,1.9,0,86.5,0,,1,,1,,1,,1,,1
2003/4/2,8:00,2.5,0,83.9,0,,1,,1,,1,,1,,1
2003/4/2,8:15,3.3,0,82.9,0,,1,,1,,1,,1,,1
2003/4/2,8:30,3.9,0,81.4,0,,1,,1,,1,,1,,1
2003/4/2,8:45,4.8,0,80.3,0,,1,,1,,1,,1,,1
2003/4/2,9:00,5.5,0,76.2,0,,1,,1,,1,,1,,1
2003/4/2,9:15,6.3,0,75.1,0,,1,,1,,1,,1,,1
2003/4/2,9:30,6.8,0,72.4,0,,1,,1,,1,,1,,1
2003/4/2,9:45,7.5,0,68.1,0,,1,,1,,1,,1,,1
2003/4/2,10:00,8.3,0,64.8,0,,1,,1,,1,,1,,1
2003/4/2,10:15,9,0,61.9,0,,1,,1,,1,,1,,1
2003/4/2,10:30,9.4,0,56.3,0,,1,,1,,1,,1,,1
2003/4/2,10:45,10.3,0,56.6,0,,1,,1,,1,,1,,1
2003/4/2,11:00,10.8,0,56.7,0,,1,,1,,1,,1,,1
2003/4/2,11:15,10.7,0,55.1,0,,1,,1,,1,,1,,1
2003/4/2,11:30,11.4,0,53,0,,1,,1,,1,,1,,1
2003/4/2,11:45,11.7,0,48.1,0,,1,,1,,1,,1,,1
2003/4/2,12:00,12.4,0,47,0,,1,,1,,1,,1,,1
2003/4/2,12:15,12.9,0,43.4,0,,1,,1,,1,,1,,1
2003/4/2,12:30,12.6,0,44.4,0,,1,,1,,1,,1,,1
2003/4/2,12:45,12.8,0,48,0,,1,,1,,1,,1,,1
2003/4/2,13:00,12.1,0,54,0,,1,,1,,1,,1,,1
2003/4/2,13:15,11.6,0,56.6,0,,1,,1,,1,,1,,1
2003/4/2,13:30,11.4,0,56.5,0,,1,,1,,1,,1,,1
2003/4/2,13:45,10.9,0,55.9,0,,1,,1,,1,,1,,1
2003/4/2,14:00,10.7,0,50.3,0,,1,,1,,1,,1,,1
2003/4/2,14:15,10.3,0,49.1,0,,1,,1,,1,,1,,1
2003/4/2,14:30,10.2,0,47.5,0,,1,,1,,1,,1,,1
2003/4/2,14:45,10.1,0,49,0,,1,,1,,1,,1,,1
2003/4/2,15:00,9.9,0,50.5,0,,1,,1,,1,,1,,1
2003/4/2,15:15,9.8,0,52.6,0,,1,,1,,1,,1,,1
2003/4/2,15:30,9.6,0,57.1,0,,1,,1,,1,,1,,1
2003/4/2,15:45,9.3,0,59,0,,1,,1,,1,,1,,1
2003/4/2,16:00,9.2,0,60.4,0,,1,,1,,1,,1,,1
2003/4/2,16:15,8.8,0,64.6,0,,1,,1,,1,,1,,1
2003/4/2,16:30,8.8,0,63.2,0,,1,,1,,1,,1,,1
2003/4/2,16:45,8.8,0,64.1,0,,1,,1,,1,,1,,1
2003/4/2,17:00,8.3,0,67.4,0,,1,,1,,1,,1,,1
2003/4/2,17:15,8.2,0,69.7,0,,1,,1,,1,,1,,1
2003/4/2,17:30,8.2,0,69.4,0,,1,,1,,1,,1,,1
2003/4/2,17:45,8.2,0,68.4,0,,1,,1,,1,,1,,1
2003/4/2,18:00,8,0,68.6,0,,1,,1,,1,,1,,1
2003/4/2,18:15,7.6,0,69.1,0,,1,,1,,1,,1,,1
2003/4/2,18:30,7.3,0,70.2,0,,1,,1,,1,,1,,1
2003/4/2,18:45,7,0,71.9,0,,1,,1,,1,,1,,1
2003/4/2,19:00,6.7,0,72.8,0,,1,,1,,1,,1,,1
2003/4/2,19:15,6.5,0,71.6,0,,1,,1,,1,,1,,1
2003/4/2,19:30,6,0,75.1,0,,1,,1,,1,,1,,1
2003/4/2,19:45,5.3,0,78.1,0,,1,,1,,1,,1,,1
2003/4/2,20:00,4.7,0,81,0,,1,,1,,1,,1,,1
2003/4/2,20:15,4.4,0,82.7,0,,1,,1,,1,,1,,1
2003/4/2,20:30,3.3,0,84.6,0,,1,,1,,1,,1,,1
2003/4/2,20:45,3.5,0,87.2,0,,1,,1,,1,,1,,1
2003/4/2,21:00,3.2,0,87,0,,1,,1,,1,,1,,1
2003/4/2,21:15,2.3,0,87.6,0,,1,,1,,1,,1,,1
2003/4/2,21:30,2,0,89.6,0,,1,,1,,1,,1,,1
2003/4/2,21:45,1.6,0,89,0,,1,,1,,1,,1,,1
2003/4/2,22:00,1,0,90.6,0,,1,,1,,1,,1,,1
2003/4/2,22:15,1.8,0,91.9,0,,1,,1,,1,,1,,1
2003/4/2,22:30,1.6,0,91.1,0,,1,,1,,1,,1,,1
2003/4/2,22:45,0.8,0,90.3,0,,1,,1,,1,,1,,1
2003/4/2,23:00,0.7,0,91.9,0,,1,,1,,1,,1,,1
2003/4/2,23:15,0.6,0,91.6,0,,1,,1,,1,,1,,1
2003/4/2,23:30,0.1,0,91.7,0,,1,,1,,1,,1,,1
2003/4/2,23:45,0,0,91.8,0,,1,,1,,1,,1,,1
2003/4/3,0:00,-0.2,0,90.9,0,,1,,1,,1,,1,,1
2003/4/3,0:15,-0.4,0,91.6,0,,1,,1,,1,,1,,1
2003/4/3,0:30,-0.8,0,91.7,0,,1,,1,,1,,1,,1
2003/4/3,0:45,-0.3,0,93.1,0,,1,,1,,1,,1,,1
2003/4/3,1:00,-0.5,0,92.5,0,,1,,1,,1,,1,,1
2003/4/3,1:15,-0.8,0,92.6,0,,1,,1,,1,,1,,1
2003/4/3,1:30,-0.7,0,93,0,,1,,1,,1,,1,,1
2003/4/3,1:45,-0.9,0,92.4,0,,1,,1,,1,,1,,1
2003/4/3,2:00,-1,0,92.5,0,,1,,1,,1,,1,,1
2003/4/3,2:15,-0.7,0,93.2,0,,1,,1,,1,,1,,1
2003/4/3,2:30,-0.6,0,92.9,0,,1,,1,,1,,1,,1
2003/4/3,2:45,-1.1,0,92.3,0,,1,,1,,1,,1,,1
2003/4/3,3:00,-1.1,0,92.9,0,,1,,1,,1,,1,,1
2003/4/3,3:15,-0.6,0,92.4,0,,1,,1,,1,,1,,1
2003/4/3,3:30,-0.5,0,92.2,0,,1,,1,,1,,1,,1
2003/4/3,3:45,-0.3,0,91.9,0,,1,,1,,1,,1,,1
2003/4/3,4:00,-0.7,0,92.2,0,,1,,1,,1,,1,,1
2003/4/3,4:15,-1.6,0,91.5,0,,1,,1,,1,,1,,1
2003/4/3,4:30,-1.3,0,92.9,0,,1,,1,,1,,1,,1
2003/4/3,4:45,-0.9,0,92.9,0,,1,,1,,1,,1,,1
2003/4/3,5:00,-1.3,0,92.4,0,,1,,1,,1,,1,,1
2003/4/3,5:15,-1.8,0,92,0,,1,,1,,1,,1,,1
2003/4/3,5:30,-1.5,0,92,0,,1,,1,,1,,1,,1
2003/4/3,5:45,-1.7,0,91.8,0,,1,,1,,1,,1,,1
2003/4/3,6:00,-1.1,0,92.3,0,,1,,1,,1,,1,,1
2003/4/3,6:15,-0.9,0,91.7,0,,1,,1,,1,,1,,1
2003/4/3,6:30,-1.2,0,91,0,,1,,1,,1,,1,,1
2003/4/3,6:45,-0.7,0,91.1,0,,1,,1,,1,,1,,1
2003/4/3,7:00,-0.4,0,90.6,0,,1,,1,,1,,1,,1
2003/4/3,7:15,0,0,90.6,0,,1,,1,,1,,1,,1
2003/4/3,7:30,0.7,0,90.6,0,,1,,1,,1,,1,,1
2003/4/3,7:45,1.7,0,89.3,0,,1,,1,,1,,1,,1
2003/4/3,8:00,3.1,0,84.7,0,,1,,1,,1,,1,,1
2003/4/3,8:15,4.3,0,80.5,0,,1,,1,,1,,1,,1
2003/4/3,8:30,5.8,0,75.4,0,,1,,1,,1,,1,,1
2003/4/3,8:45,7.2,0,70.4,0,,1,,1,,1,,1,,1
2003/4/3,9:00,8.3,0,64.9,0,,1,,1,,1,,1,,1
2003/4/3,9:15,9.3,0,60.3,0,,1,,1,,1,,1,,1
2003/4/3,9:30,10.6,0,51.6,0,,1,,1,,1,,1,,1
2003/4/3,9:45,11.4,0,43.5,0,,1,,1,,1,,1,,1
2003/4/3,10:00,11.9,0,42.2,0,,1,,1,,1,,1,,1
2003/4/3,10:15,12.2,0,38.9,0,,1,,1,,1,,1,,1
2003/4/3,10:30,12.4,0,36.6,0,,1,,1,,1,,1,,1
2003/4/3,10:45,12.7,0,35,0,,1,,1,,1,,1,,1
2003/4/3,11:00,13.5,0,32.6,0,,1,,1,,1,,1,,1
2003/4/3,11:15,14,0,29.8,0,,1,,1,,1,,1,,1
2003/4/3,11:30,14.2,0,31,0,,1,,1,,1,,1,,1
2003/4/3,11:45,14.2,0,31.3,0,,1,,1,,1,,1,,1
2003/4/3,12:00,14.4,0,35.9,0,,1,,1,,1,,1,,1
2003/4/3,12:15,14.2,0,38.4,0,,1,,1,,1,,1,,1
2003/4/3,12:30,14.4,0,37.6,0,,1,,1,,1,,1,,1
2003/4/3,12:45,14.5,0,36.1,0,,1,,1,,1,,1,,1
2003/4/3,13:00,14,0,37,0,,1,,1,,1,,1,,1
2003/4/3,13:15,13.7,0,35.4,0,,1,,1,,1,,1,,1
2003/4/3,13:30,13.5,0,34.5,0,,1,,1,,1,,1,,1
2003/4/3,13:45,13.5,0,35.4,0,,1,,1,,1,,1,,1
2003/4/3,14:00,13.7,0,33.7,0,,1,,1,,1,,1,,1
2003/4/3,14:15,13.4,0,33.3,0,,1,,1,,1,,1,,1
2003/4/3,14:30,12.7,0,35.7,0,,1,,1,,1,,1,,1
2003/4/3,14:45,12.9,0,36.8,0,,1,,1,,1,,1,,1
2003/4/3,15:00,13.6,0,35,0,,1,,1,,1,,1,,1
2003/4/3,15:15,13.7,0,35.7,0,,1,,1,,1,,1,,1
2003/4/3,15:30,13.9,0,36.8,0,,1,,1,,1,,1,,1
2003/4/3,15:45,13.9,0,38.2,0,,1,,1,,1,,1,,1
2003/4/3,16:00,13.4,0,42.2,0,,1,,1,,1,,1,,1
2003/4/3,16:15,12.6,0,43.8,0,,1,,1,,1,,1,,1
2003/4/3,16:30,12.3,0,42.7,0,,1,,1,,1,,1,,1
2003/4/3,16:45,12,0,42.8,0,,1,,1,,1,,1,,1
2003/4/3,17:00,11.6,0,43.1,0,,1,,1,,1,,1,,1
2003/4/3,17:15,11.3,0,42.7,0,,1,,1,,1,,1,,1
2003/4/3,17:30,10.8,0,43.5,0,,1,,1,,1,,1,,1
2003/4/3,17:45,10.3,0,45.7,0,,1,,1,,1,,1,,1
2003/4/3,18:00,9.8,0,48.3,0,,1,,1,,1,,1,,1
2003/4/3,18:15,9.4,0,49.8,0,,1,,1,,1,,1,,1
2003/4/3,18:30,8.9,0,53.6,0,,1,,1,,1,,1,,1
2003/4/3,18:45,8.4,0,57.1,0,,1,,1,,1,,1,,1
2003/4/3,19:00,7.6,0,60.7,0,,1,,1,,1,,1,,1
2003/4/3,19:15,6.9,0,63.3,0,,1,,1,,1,,1,,1
2003/4/3,19:30,6.5,0,66.5,0,,1,,1,,1,,1,,1
2003/4/3,19:45,6.2,0,67.7,0,,1,,1,,1,,1,,1
2003/4/3,20:00,5.6,0,69.9,0,,1,,1,,1,,1,,1
2003/4/3,20:15,4.7,0,74.6,0,,1,,1,,1,,1,,1
2003/4/3,20:30,4.6,0,76.2,0,,1,,1,,1,,1,,1
2003/4/3,20:45,4.2,0,77.4,0,,1,,1,,1,,1,,1
2003/4/3,21:00,4.4,0,77.2,0,,1,,1,,1,,1,,1
2003/4/3,21:15,4.3,0,77,0,,1,,1,,1,,1,,1
2003/4/3,21:30,3.3,0,81.1,0,,1,,1,,1,,1,,1
2003/4/3,21:45,3,0,82.4,0,,1,,1,,1,,1,,1
2003/4/3,22:00,2.4,0,83.6,0,,1,,1,,1,,1,,1
2003/4/3,22:15,2.8,0,83.7,0,,1,,1,,1,,1,,1
2003/4/3,22:30,2.9,0,81.4,0,,1,,1,,1,,1,,1
2003/4/3,22:45,2,0,83.2,0,,1,,1,,1,,1,,1
2003/4/3,23:00,1.6,0,85.5,0,,1,,1,,1,,1,,1
2003/4/3,23:15,1.7,0,85.3,0,,1,,1,,1,,1,,1
2003/4/3,23:30,1.2,0,85,0,,1,,1,,1,,1,,1
2003/4/3,23:45,1.2,0,85.4,0,,1,,1,,1,,1,,1
2003/4/4,0:00,0.8,0,86,0,,1,,1,,1,,1,,1
2003/4/4,0:15,1,0,84.9,0,,1,,1,,1,,1,,1
2003/4/4,0:30,0.6,0,85.6,0,,1,,1,,1,,1,,1
2003/4/4,0:45,0.8,0,84.7,0,,1,,1,,1,,1,,1
2003/4/4,1:00,1.4,0,81.7,0,,1,,1,,1,,1,,1
2003/4/4,1:15,1.1,0,80.9,0,,1,,1,,1,,1,,1
2003/4/4,1:30,1.5,0,78.2,0,,1,,1,,1,,1,,1
2003/4/4,1:45,1.6,0,77.3,0,,1,,1,,1,,1,,1
2003/4/4,2:00,1.1,0,80.7,0,,1,,1,,1,,1,,1
2003/4/4,2:15,1,0,80.2,0,,1,,1,,1,,1,,1
2003/4/4,2:30,2.1,0,73.6,0,,1,,1,,1,,1,,1
2003/4/4,2:45,2.9,0,65.5,0,,1,,1,,1,,1,,1
2003/4/4,3:00,2.9,0,64.4,0,,1,,1,,1,,1,,1
2003/4/4,3:15,2.5,0,69.6,0,,1,,1,,1,,1,,1
2003/4/4,3:30,2.8,0,68.7,0,,1,,1,,1,,1,,1
2003/4/4,3:45,3.4,0,62.5,0,,1,,1,,1,,1,,1
2003/4/4,4:00,3.5,0,61.1,0,,1,,1,,1,,1,,1
2003/4/4,4:15,3.5,0,59.7,0,,1,,1,,1,,1,,1
2003/4/4,4:30,2.7,0,65,0,,1,,1,,1,,1,,1
2003/4/4,4:45,2.3,0,65,0,,1,,1,,1,,1,,1
2003/4/4,5:00,1.3,0,73.2,0,,1,,1,,1,,1,,1
2003/4/4,5:15,1.9,0,68.2,0,,1,,1,,1,,1,,1
2003/4/4,5:30,0.6,0,76.8,0,,1,,1,,1,,1,,1
2003/4/4,5:45,0.7,0,75.7,0,,1,,1,,1,,1,,1
2003/4/4,6:00,0.6,0,76.5,0,,1,,1,,1,,1,,1
2003/4/4,6:15,1.1,0,74.2,0,,1,,1,,1,,1,,1
2003/4/4,6:30,1.4,0,73.3,0,,1,,1,,1,,1,,1
2003/4/4,6:45,1.5,0,74.7,0,,1,,1,,1,,1,,1
2003/4/4,7:00,2.3,0,74.7,0,,1,,1,,1,,1,,1
2003/4/4,7:15,3.3,0,73.2,0,,1,,1,,1,,1,,1
2003/4/4,7:30,4.9,0,62.9,0,,1,,1,,1,,1,,1
2003/4/4,7:45,6.3,0,58,0,,1,,1,,1,,1,,1
2003/4/4,8:00,7.6,0,51.3,0,,1,,1,,1,,1,,1
2003/4/4,8:15,8.8,0,47.2,0,,1,,1,,1,,1,,1
2003/4/4,8:30,9.7,0,44.9,0,,1,,1,,1,,1,,1
2003/4/4,8:45,11,0,37.7,0,,1,,1,,1,,1,,1
2003/4/4,9:00,12.5,0,26.5,0,,1,,1,,1,,1,,1
2003/4/4,9:15,12.9,0,24.2,0,,1,,1,,1,,1,,1
2003/4/4,9:30,13.1,0,24.3,0,,1,,1,,1,,1,,1
2003/4/4,9:45,13.3,0,24,0,,1,,1,,1,,1,,1
2003/4/4,10:00,13.7,0,23.9,0,,1,,1,,1,,1,,1
2003/4/4,10:15,14.1,0,22.5,0,,1,,1,,1,,1,,1
2003/4/4,10:30,14.3,0,23,0,,1,,1,,1,,1,,1
2003/4/4,10:45,14.3,0,22.8,0,,1,,1,,1,,1,,1
2003/4/4,11:00,14.6,0,22.4,0,,1,,1,,1,,1,,1
2003/4/4,11:15,14.8,0,22.1,0,,1,,1,,1,,1,,1
2003/4/4,11:30,15.3,0,21.5,0,,1,,1,,1,,1,,1
2003/4/4,11:45,14.9,0,27.8,0,,1,,1,,1,,1,,1
2003/4/4,12:00,14.7,0,32.5,0,,1,,1,,1,,1,,1
2003/4/4,12:15,14.6,0,32.9,0,,1,,1,,1,,1,,1
2003/4/4,12:30,14.6,0,33.5,0,,1,,1,,1,,1,,1
2003/4/4,12:45,14.9,0,31.8,0,,1,,1,,1,,1,,1
2003/4/4,13:00,15.2,0,28.9,0,,1,,1,,1,,1,,1
2003/4/4,13:15,15.3,0,27.4,0,,1,,1,,1,,1,,1
2003/4/4,13:30,15.7,0,26.7,0,,1,,1,,1,,1,,1
2003/4/4,13:45,15.6,0,27.6,0,,1,,1,,1,,1,,1
2003/4/4,14:00,15.1,0,28.2,0,,1,,1,,1,,1,,1
2003/4/4,14:15,15.1,0,28.1,0,,1,,1,,1,,1,,1
2003/4/4,14:30,15,0,32,0,,1,,1,,1,,1,,1
2003/4/4,14:45,15.1,0,31.5,0,,1,,1,,1,,1,,1
2003/4/4,15:00,15.5,0,28.6,0,,1,,1,,1,,1,,1
2003/4/4,15:15,16,0,26.4,0,,1,,1,,1,,1,,1
2003/4/4,15:30,16.1,0,26.9,0,,1,,1,,1,,1,,1
2003/4/4,15:45,14.9,0,32.3,0,,1,,1,,1,,1,,1
2003/4/4,16:00,13,0,41.1,0,,1,,1,,1,,1,,1
2003/4/4,16:15,12.2,0,45.8,0,,1,,1,,1,,1,,1
2003/4/4,16:30,12.2,0,45.5,0,,1,,1,,1,,1,,1
2003/4/4,16:45,11.9,0,44.7,0,,1,,1,,1,,1,,1
2003/4/4,17:00,11.6,0,46.8,0,,1,,1,,1,,1,,1
2003/4/4,17:15,11.2,0,49.6,0,,1,,1,,1,,1,,1
2003/4/4,17:30,10.9,0,53.4,0,,1,,1,,1,,1,,1
2003/4/4,17:45,10.6,0,57.1,0,,1,,1,,1,,1,,1
2003/4/4,18:00,10.3,0,59,0,,1,,1,,1,,1,,1
2003/4/4,18:15,10,0,61.1,0,,1,,1,,1,,1,,1
2003/4/4,18:30,9.8,0,62.1,0,,1,,1,,1,,1,,1
2003/4/4,18:45,9.7,0,61.6,0,,1,,1,,1,,1,,1
2003/4/4,19:00,9.8,0,57.5,0,,1,,1,,1,,1,,1
2003/4/4,19:15,9.5,0,56.8,0,,1,,1,,1,,1,,1
2003/4/4,19:30,9.4,0,57.7,0,,1,,1,,1,,1,,1
2003/4/4,19:45,9,0,62.5,0,,1,,1,,1,,1,,1
2003/4/4,20:00,8.7,0,64.9,0,,1,,1,,1,,1,,1
2003/4/4,20:15,8.4,0,67.5,0,,1,,1,,1,,1,,1
2003/4/4,20:30,8.2,0,66.5,0,,1,,1,,1,,1,,1
2003/4/4,20:45,8,0,69.1,0,,1,,1,,1,,1,,1
2003/4/4,21:00,8,0,69.1,0,,1,,1,,1,,1,,1
2003/4/4,21:15,7.8,0,71.5,0,,1,,1,,1,,1,,1
2003/4/4,21:30,7.4,0,73.3,0,,1,,1,,1,,1,,1
2003/4/4,21:45,7.5,0,70.8,0,,1,,1,,1,,1,,1
2003/4/4,22:00,7.2,0,71.1,0,,1,,1,,1,,1,,1
2003/4/4,22:15,7,0,70,0,,1,,1,,1,,1,,1
2003/4/4,22:30,6.4,0,71.1,0,,1,,1,,1,,1,,1
2003/4/4,22:45,6.2,0,68,0,,1,,1,,1,,1,,1
2003/4/4,23:00,5.9,0,66.8,0,,1,,1,,1,,1,,1
2003/4/4,23:15,5.2,0,73.4,0,,1,,1,,1,,1,,1
2003/4/4,23:30,4.7,0,74.6,0,,1,,1,,1,,1,,1
2003/4/4,23:45,4.8,0,73.8,0,,1,,1,,1,,1,,1
2003/4/5,0:00,4.4,0,77,0,,1,,1,,1,,1,,1
2003/4/5,0:15,4.4,0,74.3,0,,1,,1,,1,,1,,1
2003/4/5,0:30,3.8,0,78.3,0,,1,,1,,1,,1,,1
2003/4/5,0:45,3.8,0,79.5,0,,1,,1,,1,,1,,1
2003/4/5,1:00,3.6,0,79.8,0,,1,,1,,1,,1,,1
2003/4/5,1:15,3.9,0,79.1,0,,1,,1,,1,,1,,1
2003/4/5,1:30,3.7,0,77.3,0,,1,,1,,1,,1,,1
2003/4/5,1:45,3.9,0,76,0,,1,,1,,1,,1,,1
2003/4/5,2:00,3.6,0,74.9,0,,1,,1,,1,,1,,1
2003/4/5,2:15,3.6,0,76.6,0,,1,,1,,1,,1,,1
2003/4/5,2:30,3.1,0,77.8,0,,1,,1,,1,,1,,1
2003/4/5,2:45,2.7,0,79.1,0,,1,,1,,1,,1,,1
2003/4/5,3:00,2.6,0,78.5,0,,1,,1,,1,,1,,1
2003/4/5,3:15,2.8,0,77.8,0,,1,,1,,1,,1,,1
2003/4/5,3:30,3.4,0,71.7,0,,1,,1,,1,,1,,1
2003/4/5,3:45,3.8,0,66.4,0,,1,,1,,1,,1,,1
2003/4/5,4:00,2.6,0,75.7,0,,1,,1,,1,,1,,1
2003/4/5,4:15,2.3,0,78.2,0,,1,,1,,1,,1,,1
2003/4/5,4:30,2.4,0,78.4,0,,1,,1,,1,,1,,1
2003/4/5,4:45,2.7,0,76.2,0,,1,,1,,1,,1,,1
2003/4/5,5:00,2.3,0,77.7,0,,1,,1,,1,,1,,1
2003/4/5,5:15,2.1,0,77.5,0,,1,,1,,1,,1,,1
2003/4/5,5:30,1.7,0,80.7,0,,1,,1,,1,,1,,1
2003/4/5,5:45,2.2,0,78.6,0,,1,,1,,1,,1,,1
2003/4/5,6:00,2.1,0,79,0,,1,,1,,1,,1,,1
2003/4/5,6:15,2.3,0,79.3,0,,1,,1,,1,,1,,1
2003/4/5,6:30,3.2,0,75.6,0,,1,,1,,1,,1,,1
2003/4/5,6:45,3.3,0,79.9,0,,1,,1,,1,,1,,1
2003/4/5,7:00,4.4,0,73.8,0,,1,,1,,1,,1,,1
2003/4/5,7:15,5.6,0,69.2,0,,1,,1,,1,,1,,1
2003/4/5,7:30,6.6,0,64,0,,1,,1,,1,,1,,1
2003/4/5,7:45,7.3,0,57.4,0,,1,,1,,1,,1,,1
2003/4/5,8:00,8.3,0,52.8,0,,1,,1,,1,,1,,1
2003/4/5,8:15,8.5,0,52.6,0,,1,,1,,1,,1,,1
2003/4/5,8:30,8.9,0,51.3,0,,1,,1,,1,,1,,1
2003/4/5,8:45,9.6,0,52.8,0,,1,,1,,1,,1,,1
2003/4/5,9:00,10.3,0,51.5,0,,1,,1,,1,,1,,1
2003/4/5,9:15,10.9,0,49,0,,1,,1,,1,,1,,1
2003/4/5,9:30,11.3,0,48.4,0,,1,,1,,1,,1,,1
2003/4/5,9:45,11.8,0,48.8,0,,1,,1,,1,,1,,1
2003/4/5,10:00,11.6,0,48.3,0,,1,,1,,1,,1,,1
2003/4/5,10:15,11.7,0,48.8,0,,1,,1,,1,,1,,1
2003/4/5,10:30,12,0,48.1,0,,1,,1,,1,,1,,1
2003/4/5,10:45,11.6,0,49,0,,1,,1,,1,,1,,1
2003/4/5,11:00,11.1,0,50.1,0,,1,,1,,1,,1,,1
2003/4/5,11:15,10.3,0,52.3,0,,1,,1,,1,,1,,1
2003/4/5,11:30,10,0,53.8,0,,1,,1,,1,,1,,1
2003/4/5,11:45,9.9,0,54.9,0,,1,,1,,1,,1,,1
2003/4/5,12:00,9.9,0,54.3,0,,1,,1,,1,,1,,1
2003/4/5,12:15,9.7,0,54.7,0,,1,,1,,1,,1,,1
2003/4/5,12:30,9.7,0,54.8,0,,1,,1,,1,,1,,1
2003/4/5,12:45,9.7,0,55.3,0,,1,,1,,1,,1,,1
2003/4/5,13:00,9.5,0,56.7,0,,1,,1,,1,,1,,1
2003/4/5,13:15,9.2,0,58.7,0,,1,,1,,1,,1,,1
2003/4/5,13:30,9.2,0,59.9,0,,1,,1,,1,,1,,1
2003/4/5,13:45,9,0,60,0,,1,,1,,1,,1,,1
2003/4/5,14:00,9.2,0,59.8,0,,1,,1,,1,,1,,1
2003/4/5,14:15,9.2,0,59.8,0,,1,,1,,1,,1,,1
2003/4/5,14:30,9.1,0,60.4,0,,1,,1,,1,,1,,1
2003/4/5,14:45,9.1,0,60.7,0,,1,,1,,1,,1,,1
2003/4/5,15:00,9,0,62.1,0,,1,,1,,1,,1,,1
2003/4/5,15:15,8.7,0,65,0,,1,,1,,1,,1,,1
2003/4/5,15:30,8.5,0,66.3,0,,1,,1,,1,,1,,1
2003/4/5,15:45,8.4,0,67,0,,1,,1,,1,,1,,1
2003/4/5,16:00,8.2,0,69.8,0,,1,,1,,1,,1,,1
2003/4/5,16:15,8,0,72,0,,1,,1,,1,,1,,1
2003/4/5,16:30,7.8,0,72.2,0,,1,,1,,1,,1,,1
2003/4/5,16:45,7.9,0,72.6,0,,1,,1,,1,,1,,1
2003/4/5,17:00,8,0,72.8,0,,1,,1,,1,,1,,1
2003/4/5,17:15,7.9,0,73.9,0,,1,,1,,1,,1,,1
2003/4/5,17:30,7.7,0,75.7,0,,1,,1,,1,,1,,1
2003/4/5,17:45,7.4,0,78.5,0,,1,,1,,1,,1,,1
2003/4/5,18:00,7.3,0,77.3,0,,1,,1,,1,,1,,1
2003/4/5,18:15,7.3,0,77.3,0,,1,,1,,1,,1,,1
2003/4/5,18:30,7.1,0,78.7,0,,1,,1,,1,,1,,1
2003/4/5,18:45,7,0,79.4,0,,1,,1,,1,,1,,1
2003/4/5,19:00,6.9,0,79.6,0,,1,,1,,1,,1,,1
2003/4/5,19:15,6.7,0,82.3,0,,1,,1,,1,,1,,1
2003/4/5,19:30,6.5,0,83.3,0,,1,,1,,1,,1,,1
2003/4/5,19:45,6.5,0,83.2,0,,1,,1,,1,,1,,1
2003/4/5,20:00,6.4,0,83.8,0,,1,,1,,1,,1,,1
2003/4/5,20:15,6.1,0,84.2,0,,1,,1,,1,,1,,1
2003/4/5,20:30,6.1,0,83.4,0,,1,,1,,1,,1,,1
2003/4/5,20:45,6.1,0,83.5,0,,1,,1,,1,,1,,1
2003/4/5,21:00,6.2,0,83.2,0,,1,,1,,1,,1,,1
2003/4/5,21:15,6,0,85.7,0,,1,,1,,1,,1,,1
2003/4/5,21:30,5.8,0,86.9,0,,1,,1,,1,,1,,1
2003/4/5,21:45,5.9,0,85.9,0,,1,,1,,1,,1,,1
2003/4/5,22:00,5.5,0,88.2,0,,1,,1,,1,,1,,1
2003/4/5,22:15,5.3,0,88.6,0,,1,,1,,1,,1,,1
2003/4/5,22:30,5.1,0,89.3,0,,1,,1,,1,,1,,1
2003/4/5,22:45,5.2,0,89.6,0,,1,,1,,1,,1,,1
2003/4/5,23:00,5.4,0,88.8,0,,1,,1,,1,,1,,1
2003/4/5,23:15,5.5,0,88.6,0,,1,,1,,1,,1,,1
2003/4/5,23:30,5.5,0,87.2,0,,1,,1,,1,,1,,1
2003/4/5,23:45,5.5,0,86.3,0,,1,,1,,1,,1,,1
2003/4/6,0:00,5.3,0,87,0,,1,,1,,1,,1,,1
2003/4/6,0:15,4.9,0,89.5,0,,1,,1,,1,,1,,1
2003/4/6,0:30,4.7,0,89.8,0,,1,,1,,1,,1,,1
2003/4/6,0:45,4.6,0,90.9,0,,1,,1,,1,,1,,1
2003/4/6,1:00,4.6,0,90.1,0,,1,,1,,1,,1,,1
2003/4/6,1:15,4.5,0,90.1,0,,1,,1,,1,,1,,1
2003/4/6,1:30,4.7,0,89.7,0,,1,,1,,1,,1,,1
2003/4/6,1:45,4.7,0,89.6,0,,1,,1,,1,,1,,1
2003/4/6,2:00,4.8,0,89.3,0,,1,,1,,1,,1,,1
2003/4/6,2:15,5,0,88.5,0,,1,,1,,1,,1,,1
2003/4/6,2:30,4.7,0,90.1,0,,1,,1,,1,,1,,1
2003/4/6,2:45,4.7,0,89.7,0,,1,,1,,1,,1,,1
2003/4/6,3:00,4.7,0,89.3,0,,1,,1,,1,,1,,1
2003/4/6,3:15,4.6,0,90,0,,1,,1,,1,,1,,1
2003/4/6,3:30,4.7,0,89.8,0,,1,,1,,1,,1,,1
2003/4/6,3:45,4.8,0,89.3,0,,1,,1,,1,,1,,1
2003/4/6,4:00,4.8,0,89.2,0,,1,,1,,1,,1,,1
2003/4/6,4:15,4.8,0,89.1,0,,1,,1,,1,,1,,1
2003/4/6,4:30,4.8,0,88.8,0,,1,,1,,1,,1,,1
2003/4/6,4:45,4.9,0,88.5,0,,1,,1,,1,,1,,1
2003/4/6,5:00,4.9,0,88.7,0,,1,,1,,1,,1,,1
2003/4/6,5:15,4.9,0,88.5,0,,1,,1,,1,,1,,1
2003/4/6,5:30,4.9,0,87.6,0,,1,,1,,1,,1,,1
2003/4/6,5:45,4.9,0,86.4,0,,1,,1,,1,,1,,1
2003/4/6,6:00,4.8,0,87.2,0,,1,,1,,1,,1,,1
2003/4/6,6:15,5.3,0,80.5,0,,1,,1,,1,,1,,1
2003/4/6,6:30,5.3,0,78.3,0,,1,,1,,1,,1,,1
2003/4/6,6:45,5.4,0,75.4,0,,1,,1,,1,,1,,1
2003/4/6,7:00,5.4,0,74.9,0,,1,,1,,1,,1,,1
2003/4/6,7:15,5.6,0,73.4,0,,1,,1,,1,,1,,1
2003/4/6,7:30,5.9,0,73.1,0,,1,,1,,1,,1,,1
2003/4/6,7:45,6.1,0,71.1,0,,1,,1,,1,,1,,1
2003/4/6,8:00,6.6,0,69.9,0,,1,,1,,1,,1,,1
2003/4/6,8:15,7.3,0,69.3,0,,1,,1,,1,,1,,1
2003/4/6,8:30,7.6,0,68.9,0,,1,,1,,1,,1,,1
2003/4/6,8:45,6,0,82.8,0,,1,,1,,1,,1,,1
2003/4/6,9:00,6.7,0,83.6,0,,1,,1,,1,,1,,1
2003/4/6,9:15,7.2,0,78.5,0,,1,,1,,1,,1,,1
2003/4/6,9:30,7.4,0,75.4,0,,1,,1,,1,,1,,1
2003/4/6,9:45,8.1,0,72.7,0,,1,,1,,1,,1,,1
2003/4/6,10:00,8.8,0,66.3,0,,1,,1,,1,,1,,1
2003/4/6,10:15,9.8,0,64.3,0,,1,,1,,1,,1,,1
2003/4/6,10:30,9.7,0,59.3,0,,1,,1,,1,,1,,1
2003/4/6,10:45,10,0,56.9,0,,1,,1,,1,,1,,1
2003/4/6,11:00,9.6,0,60.2,0,,1,,1,,1,,1,,1
2003/4/6,11:15,9.9,0,61.2,0,,1,,1,,1,,1,,1
2003/4/6,11:30,9.9,0,57.9,0,,1,,1,,1,,1,,1
2003/4/6,11:45,10.5,0,54.9,0,,1,,1,,1,,1,,1
2003/4/6,12:00,10.8,0,52.6,0,,1,,1,,1,,1,,1
2003/4/6,12:15,10.1,0,53.9,0,,1,,1,,1,,1,,1
2003/4/6,12:30,9.3,0,57.4,0,,1,,1,,1,,1,,1
2003/4/6,12:45,9.6,0,58.1,0,,1,,1,,1,,1,,1
2003/4/6,13:00,9.5,0,57.4,0,,1,,1,,1,,1,,1
2003/4/6,13:15,9.7,0,54.7,0,,1,,1,,1,,1,,1
2003/4/6,13:30,9.7,0,53.6,0,,1,,1,,1,,1,,1
2003/4/6,13:45,9.2,0,55.9,0,,1,,1,,1,,1,,1
2003/4/6,14:00,9,0,57.9,0,,1,,1,,1,,1,,1
2003/4/6,14:15,9.2,0,60.8,0,,1,,1,,1,,1,,1
2003/4/6,14:30,9.9,0,55.7,0,,1,,1,,1,,1,,1
2003/4/6,14:45,10.2,0,52.8,0,,1,,1,,1,,1,,1
2003/4/6,15:00,10.1,0,51.8,0,,1,,1,,1,,1,,1
2003/4/6,15:15,9.9,0,50.4,0,,1,,1,,1,,1,,1
2003/4/6,15:30,9.1,0,53.7,0,,1,,1,,1,,1,,1
2003/4/6,15:45,9.2,0,53.3,0,,1,,1,,1,,1,,1
2003/4/6,16:00,9.4,0,54.5,0,,1,,1,,1,,1,,1
2003/4/6,16:15,9.1,0,55.9,0,,1,,1,,1,,1,,1
2003/4/6,16:30,9,0,56.3,0,,1,,1,,1,,1,,1
2003/4/6,16:45,8.8,0,61.1,0,,1,,1,,1,,1,,1